User: anonymous   Login
Location: L�tisburg
(47.3947°N, 9.0820°E)
Time: 13:30:26
(UTC+00:00)
Language:

H-2A DEB - Orbit

View from above orbital plane
View from above orbital plane
View from above satellite
View from above satellite

Ground track
Ground track

The orbit data is extracted from the following two-line orbital elements,

1 43674U 18084D   21267.09956274  .00002022  00000-0  21459-3 0  9995
2 43674  97.9353  29.5751 0015088  48.6510 311.6002 14.90113025157830
Epoch (UTC): 24 September 2021 02:23:22
Eccentricity: 0.0015088
inclination: 97.9353°
perigee height: 587 km
apogee height: 608 km
right ascension of ascending node: 29.5751°
argument of perigee: 48.6510°
revolutions per day: 14.90113025
mean anomaly at epoch: 311.6002°
orbit number at epoch: 15783

The dashed part of the orbit path shows where the satellite is in the earth's shadow,  

DLR